| time (UTC) | temp F | wind direction | speed knots | gust knots | rain 1hr in | rain 24hr in | rain mn in | humidity % | barometer mb |
| 20260503200814 | 56 | 57 | 8.7 | 14.8 | 0.00 | 0.03 | 0.00 | 65 | 1016.6 |
| 20260503200743 | 57 | 58 | 7.8 | 13.0 | 0.00 | 0.03 | 0.00 | 61 | 1016.9 |
| 20260503194814 | 57 | 92 | 7.8 | 13.0 | 0.00 | 0.03 | 0.00 | 65 | 1017.1 |
| 20260503193814 | 59 | 32 | 7.8 | 13.9 | 0.00 | 0.03 | 0.00 | 56 | 1017.1 |
| 20260503192815 | 62 | 11 | 7.0 | 17.4 | 0.00 | 0.03 | 0.00 | 44 | 1017.2 |
| 20260503191814 | 62 | 19 | 5.2 | 17.4 | 0.00 | 0.03 | 0.00 | 45 | 1017.3 |
| 20260503191741 | 62 | 301 | 6.1 | 14.8 | 0.00 | 0.03 | 0.00 | 43 | 1017.3 |
| 20260503185815 | 62 | 306 | 6.1 | 14.8 | 0.00 | 0.03 | 0.00 | 45 | 1017.3 |
| 20260503184815 | 61 | 65 | 6.1 | 16.5 | 0.00 | 0.03 | 0.00 | 46 | 1017.5 |
| 20260503183815 | 61 | 345 | 7.0 | 13.9 | 0.00 | 0.03 | 0.00 | 43 | 1017.6 |
| 20260503182811 | 61 | 302 | 7.0 | 15.6 | 0.00 | 0.03 | 0.00 | 44 | 1017.8 |
| 20260503181810 | 61 | 328 | 6.1 | 12.2 | 0.00 | 0.03 | 0.00 | 44 | 1017.7 |
| 20260503180810 | 61 | 5 | 6.1 | 13.9 | 0.00 | 0.03 | 0.00 | 44 | 1017.8 |
| 20260503175810 | 61 | 325 | 6.1 | 12.2 | 0.00 | 0.03 | 0.00 | 46 | 1017.7 |
| 20260503174811 | 61 | 296 | 7.0 | 13.9 | 0.00 | 0.03 | 0.00 | 46 | 1017.8 |
| 20260503174739 | 60 | 327 | 7.0 | 13.0 | 0.00 | 0.04 | 0.00 | 47 | 1017.8 |
| 20260503172809 | 60 | 342 | 5.2 | 13.9 | 0.00 | 0.04 | 0.00 | 48 | 1017.9 |
| 20260503171811 | 60 | 17 | 6.1 | 13.9 | 0.00 | 0.04 | 0.00 | 47 | 1017.9 |
| 20260503170807 | 60 | 26 | 7.0 | 12.2 | 0.00 | 0.04 | 0.00 | 47 | 1017.9 |
| 20260503170252 | 60 | 12 | 6.1 | 13.9 | 0.00 | 0.04 | 0.00 | 46 | 1017.9 |
| 20260503130758 | 56 | 40 | 13.0 | 19.1 | 0.00 | 0.04 | 0.00 | 67 | 1017.1 |
| 20260503110759 | 53 | 317 | 4.3 | 9.6 | 0.00 | 0.07 | 0.00 | 71 | 1015.5 |
| 20260503081232 | 54 | 355 | 4.3 | 9.6 | 0.00 | 0.19 | 0.00 | 69 | 1013.2 |
| 20260503071745 | 54 | 321 | 4.3 | 9.6 | 0.00 | 0.19 | 0.00 | 73 | 1012.5 |
| 20260503070743 | 54 | 331 | 4.3 | 9.6 | 0.00 | 0.19 | 0.00 | 74 | 1012.3 |
| 20260503054742 | 55 | 17 | 4.3 | 14.8 | 0.00 | 0.19 | 0.00 | 72 | 1011.7 |
| 20260503053742 | 56 | 319 | 9.6 | 14.8 | 0.00 | 0.19 | 0.00 | 73 | 1011.6 |
| 20260503052739 | 57 | 0 | 10.4 | 14.8 | 0.00 | 0.19 | 0.00 | 74 | 1011.5 |
| 20260503051741 | 56 | 9 | 11.3 | 14.8 | 0.00 | 0.19 | 0.00 | 73 | 1011.8 |
| 20260503050740 | 57 | 15 | 11.3 | 14.8 | 0.00 | 0.19 | 0.00 | 73 | 1011.7 |
| 20260503045737 | 56 | 11 | 11.3 | 17.4 | 0.00 | 0.19 | 0.00 | 73 | 1011.8 |
| 20260503044739 | 56 | 13 | 11.3 | 15.6 | 0.00 | 0.19 | 0.00 | 74 | 1012.0 |
| 20260503043737 | 56 | 25 | 12.2 | 16.5 | 0.00 | 0.19 | 0.00 | 73 | 1012.1 |
| 20260503042738 | 56 | 46 | 11.3 | 16.5 | 0.00 | 0.19 | 0.00 | 72 | 1012.0 |
| 20260503041737 | 56 | 18 | 12.2 | 17.4 | 0.00 | 0.19 | 0.00 | 71 | 1011.9 |
| 20260503040739 | 56 | 44 | 13.0 | 18.2 | 0.00 | 0.19 | 0.00 | 70 | 1011.9 |
| 20260503040225 | 56 | 27 | 13.0 | 17.4 | 0.00 | 0.19 | 0.19 | 71 | 1011.8 |
| 20260503034737 | 56 | 9 | 13.9 | 19.1 | 0.00 | 0.19 | 0.19 | 69 | 1011.7 |
| 20260503033736 | 56 | 32 | 13.9 | 20.0 | 0.00 | 0.19 | 0.19 | 70 | 1011.7 |
| 20260503032737 | 55 | 33 | 13.9 | 20.0 | 0.00 | 0.19 | 0.19 | 73 | 1011.8 |
| 20260503031735 | 55 | 13 | 15.6 | 22.6 | 0.00 | 0.19 | 0.19 | 75 | 1011.7 |
| 20260503030734 | 56 | 21 | 13.0 | 18.2 | 0.01 | 0.19 | 0.19 | 74 | 1011.7 |
| 20260503030222 | 56 | 14 | 13.9 | 19.1 | 0.01 | 0.19 | 0.19 | 75 | 1011.6 |
| 20260503024734 | 56 | 43 | 13.0 | 17.4 | 0.01 | 0.19 | 0.19 | 76 | 1011.6 |
| 20260503023735 | 56 | 42 | 13.9 | 18.2 | 0.01 | 0.19 | 0.19 | 78 | 1011.9 |
| 20260503022735 | 56 | 355 | 13.0 | 18.2 | 0.01 | 0.19 | 0.19 | 80 | 1011.8 |
| 20260503021735 | 56 | 11 | 13.9 | 19.1 | 0.01 | 0.19 | 0.19 | 80 | 1011.7 |
| 20260503020732 | 56 | 12 | 13.0 | 19.1 | 0.00 | 0.18 | 0.18 | 81 | 1011.6 |
| 20260503015733 | 56 | 33 | 13.0 | 18.2 | 0.00 | 0.18 | 0.18 | 81 | 1011.6 |
| 20260503015221 | 55 | 27 | 13.0 | 18.2 | 0.00 | 0.18 | 0.18 | 82 | 1011.4 |
| 20260503014219 | 55 | 44 | 12.2 | 17.4 | 0.00 | 0.18 | 0.18 | 82 | 1011.6 |
| 20260503012732 | 55 | 17 | 11.3 | 18.2 | 0.00 | 0.18 | 0.18 | 82 | 1011.9 |
| 20260503011732 | 55 | 14 | 11.3 | 17.4 | 0.00 | 0.18 | 0.18 | 82 | 1011.7 |
| 20260503010733 | 55 | 22 | 12.2 | 17.4 | 0.00 | 0.18 | 0.18 | 81 | 1011.4 |
| 20260503005733 | 55 | 13 | 12.2 | 16.5 | 0.00 | 0.18 | 0.18 | 81 | 1011.2 |
| 20260503005208 | 54 | 19 | 12.2 | 15.6 | 0.00 | 0.18 | 0.18 | 80 | 1011.1 |
| 20260503004219 | 54 | 17 | 10.4 | 14.8 | 0.00 | 0.18 | 0.18 | 81 | 1011.3 |
| 20260503003216 | 54 | 0 | 11.3 | 15.6 | 0.00 | 0.18 | 0.18 | 81 | 1010.9 |
| 20260503001733 | 54 | 12 | 10.4 | 14.8 | 0.00 | 0.18 | 0.18 | 81 | 1011.3 |
| 20260503000735 | 54 | 15 | 11.3 | 15.6 | 0.00 | 0.18 | 0.18 | 81 | 1011.2 |
| 20260502235735 | 54 | 30 | 12.2 | 17.4 | 0.00 | 0.18 | 0.18 | 81 | 1010.9 |
| 20260502234733 | 54 | 0 | 12.2 | 17.4 | 0.00 | 0.18 | 0.18 | 81 | 1010.7 |
| 20260502233732 | 54 | 0 | 13.9 | 19.1 | 0.00 | 0.18 | 0.18 | 81 | 1010.7 |
| 20260502233212 | 54 | 36 | 13.9 | 19.1 | 0.00 | 0.18 | 0.18 | 81 | 1010.6 |
| 20260502231733 | 54 | 49 | 14.8 | 20.9 | 0.00 | 0.18 | 0.18 | 82 | 1010.2 |
| 20260502230731 | 53 | 13 | 16.5 | 20.9 | 0.00 | 0.18 | 0.18 | 83 | 1010.1 |
| 20260502230657 | 53 | 43 | 15.6 | 21.7 | 0.00 | 0.18 | 0.18 | 85 | 1010.1 |
| 20260502224731 | 53 | 37 | 16.5 | 20.9 | 0.00 | 0.18 | 0.18 | 85 | 1010.4 |
| 20260502223730 | 53 | 17 | 16.5 | 20.9 | 0.00 | 0.18 | 0.18 | 85 | 1010.3 |
| 20260502222731 | 53 | 9 | 15.6 | 20.9 | 0.00 | 0.18 | 0.18 | 86 | 1010.4 |
| 20260502221730 | 53 | 0 | 15.6 | 20.9 | 0.01 | 0.18 | 0.18 | 86 | 1010.7 |
| 20260502220731 | 53 | 31 | 14.8 | 20.9 | 0.01 | 0.18 | 0.18 | 87 | 1010.4 |
| 20260502215731 | 53 | 25 | 15.6 | 20.9 | 0.02 | 0.18 | 0.18 | 87 | 1010.7 |
| 20260502214730 | 53 | 40 | 14.8 | 20.0 | 0.02 | 0.18 | 0.18 | 87 | 1010.4 |
| 20260502213730 | 53 | 0 | 15.6 | 20.9 | 0.02 | 0.18 | 0.18 | 87 | 1010.2 |
| 20260502212731 | 53 | 17 | 15.6 | 20.9 | 0.02 | 0.18 | 0.18 | 87 | 1010.4 |
| 20260502211726 | 53 | 22 | 14.8 | 20.0 | 0.01 | 0.17 | 0.17 | 87 | 1010.4 |
| 20260502210727 | 53 | 55 | 15.6 | 21.7 | 0.01 | 0.17 | 0.17 | 87 | 1010.0 |
| 20260502205725 | 53 | 49 | 13.9 | 19.1 | 0.00 | 0.16 | 0.16 | 86 | 1010.5 |
| 20260502205127 | 53 | 0 | 14.8 | 20.9 | 0.00 | 0.16 | 0.16 | 87 | 1010.1 |
| 20260502204911 | 53 | 0 | 13.9 | 20.9 | 0.00 | 0.16 | 0.16 | 87 | 1010.4 |
| 20260502202726 | 53 | 43 | 15.6 | 20.0 | 0.00 | 0.16 | 0.16 | 87 | 1010.4 |
| 20260502201726 | 53 | 0 | 15.6 | 21.7 | 0.00 | 0.16 | 0.16 | 88 | 1010.1 |